(°C)
(°C)
-0°
-1°
-2°
-2°
-3°
-2°
-3°
ONO
ONO
ONO
ONO
ONO
ONO
ONO
(km/h)
7-22
8-25
7-21
6-20
5-17
3-15
4-11
(mm)
0
0
0
0
0
0
0.6
(%)
0
10
11
16
26
22
37

Élévation du soleil

/ -11.6°
sun-icon
UV 1
07:53
16:55
Gibbeuse croissante (173°)
16:07
07:59

METAR pour Innsbruck (LOWI)

Heure Conditions Température/
Point de rosée
Vent Visibilité Météo Nuages Pression Changement Brut
VFR 4°C / -1°C 120º 4kt >10km - Few Clouds 6000ft
Scattered Clouds 8500ft
1030 No Significant change LOWI 171650Z 12004KT 9999 FEW060 SCT085 04/M01 Q1030 NOSIG
VFR 5°C / -1°C 90º 5kt >10km - Few Clouds 6000ft
Scattered Clouds 9000ft
1030 No Significant change LOWI 171620Z 09005KT 9999 FEW060 SCT090 05/M01 Q1030 NOSIG
VFR 6°C / -1°C 100º variable 060º to 130º 5kt >10km - Few Clouds 6000ft
Scattered Clouds 9000ft
1029 No Significant change LOWI 171550Z 10005KT 060V130 9999 FEW060 SCT090 06/M01 Q1029 NOSIG
VFR 7°C / -2°C 90º variable 060º to 150º 6kt >10km - Few Clouds 6000ft
Scattered Clouds 10000ft
1029 No Significant change LOWI 171520Z 09006KT 060V150 9999 FEW060 SCT100 07/M02 Q1029 NOSIG
VFR 7°C / -2°C 170º variable 140º to 210º 3kt >10km - Few Clouds 6000ft
Broken Clouds 10000ft
1029 No Significant change LOWI 171450Z 17003KT 140V210 9999 FEW060 BKN100 07/M02 Q1029 NOSIG
VFR 8°C / -2°C variable 2kt >10km - Few Clouds 6000ft
Broken Clouds 10000ft
1029 No Significant change LOWI 171420Z VRB02KT 9999 FEW060 BKN100 08/M02 Q1029 NOSIG
VFR 8°C / -2°C variable 2kt >10km - Few Clouds 6000ft
Scattered Clouds 10000ft
1029 No Significant change LOWI 171350Z VRB02KT 9999 FEW060 SCT100 08/M02 Q1029 NOSIG
VFR 7°C / -2°C 200º variable 160º to 230º 3kt >10km - Few Clouds 6000ft
Scattered Clouds 10000ft
1029 Temporary: Wind 270º 15kt. LOWI 171320Z 20003KT 160V230 9999 FEW060 SCT100 07/M02 Q1029 TEMPO 27015KT
VFR 9°C / -2°C 140º variable 090º to 210º 3kt >10km - Few Clouds 4000ft
Scattered Clouds 5000ft
Broken Clouds 7000ft
1029 Temporary: Wind 270º 15kt. LOWI 171250Z 14003KT 090V210 9999 FEW040 SCT050 BKN070 09/M02 Q1029 TEMPO 27015KT
VFR 8°C / -1°C 180º variable 140º to 230º 4kt >10km - Few Clouds 4000ft
Scattered Clouds 5000ft
Broken Clouds 7000ft
1029 Temporary: Wind 270º 15kt. LOWI 171220Z 18004KT 140V230 9999 FEW040 SCT050 BKN070 08/M01 Q1029 TEMPO 27015KT
VFR 7°C / -1°C 100º variable 070º to 160º 3kt >10km - Few Clouds 4000ft
Scattered Clouds 5000ft
Broken Clouds 7000ft
1030 Temporary: from 1230 Wind 270º 15kt. LOWI 171150Z 10003KT 070V160 9999 FEW040 SCT050 BKN070 07/M01 Q1030 TEMPO FM1230 27015KT
VFR 6°C / -1°C 140º variable 070º to 220º 3kt >10km - Few Clouds 4000ft
Scattered Clouds 5000ft
Broken Clouds 7000ft
1031 Temporary: from 1230 Wind 270º 15kt. LOWI 171120Z 14003KT 070V220 9999 FEW040 SCT050 BKN070 06/M01 Q1031 TEMPO FM1230 27015KT
VFR 6°C / 0°C variable 2kt >10km - Few Clouds 4000ft
Scattered Clouds 5000ft
Broken Clouds 7000ft
1031 Temporary: from 1200 Wind 270º 20kt. LOWI 171050Z VRB02KT 9999 FEW040 SCT050 BKN070 06/M00 Q1031 TEMPO FM1200 27020KT
VFR 4°C / 0°C variable 1kt >10km - Few Clouds 4000ft
Scattered Clouds 5000ft
Broken Clouds 7000ft
1032 Temporary: from 1200 Wind 270º 20kt. LOWI 171020Z VRB01KT 9999 FEW040 SCT050 BKN070 04/M00 Q1032 TEMPO FM1200 27020KT
VFR 3°C / -1°C variable 1kt >10km - Few Clouds 4000ft
Scattered Clouds 5000ft
Broken Clouds 7000ft
1032 No Significant change LOWI 170950Z VRB01KT 9999 FEW040 SCT050 BKN070 03/M01 Q1032 NOSIG
VFR 1°C / -1°C variable 2kt >10km - Few Clouds 4000ft
Scattered Clouds 5000ft
Broken Clouds 7000ft
1032 No Significant change LOWI 170920Z VRB02KT 9999 FEW040 SCT050 BKN070 01/M01 Q1032 NOSIG
VFR 1°C / -1°C variable 2kt >10km - Few Clouds 4000ft
Scattered Clouds 5000ft
Broken Clouds 7000ft
1031 No Significant change LOWI 170850Z VRB02KT 9999 FEW040 SCT050 BKN070 01/M01 Q1031 NOSIG
VFR 0°C / -2°C 260º 3kt >10km - Few Clouds 4000ft
Scattered Clouds 5000ft
Broken Clouds 7000ft
1031 No Significant change LOWI 170820Z 26003KT 9999 FEW040 SCT050 BKN070 00/M02 Q1031 NOSIG
VFR 0°C / -2°C 250º variable 200º to 280º 3kt >10km - Few Clouds 4000ft
Scattered Clouds 5000ft
Broken Clouds 7000ft
1031 No Significant change LOWI 170750Z 25003KT 200V280 9999 FEW040 SCT050 BKN070 00/M02 Q1031 NOSIG
VFR 0°C / -2°C variable 2kt >10km - Few Clouds 4000ft
Scattered Clouds 5000ft
Broken Clouds 7000ft
1031 No Significant change LOWI 170720Z VRB02KT 9999 FEW040 SCT050 BKN070 00/M02 Q1031 NOSIG
VFR 0°C / -2°C variable 2kt >10km - Few Clouds 4000ft
Scattered Clouds 5000ft
Broken Clouds 7000ft
1031 No Significant change LOWI 170650Z VRB02KT 9999 FEW040 SCT050 BKN070 00/M02 Q1031 NOSIG
VFR 0°C / -2°C variable 3kt >10km - Few Clouds 4000ft
Scattered Clouds 5000ft
Broken Clouds 7000ft
1030 No Significant change LOWI 170620Z VRB03KT 9999 FEW040 SCT050 BKN070 00/M02 Q1030 NOSIG
VFR 0°C / -2°C variable 2kt >10km Light Showers Snow 3.00mm precipitation Vertical Visibility of 0ft.
Scattered Clouds 5000ft
Broken Clouds 7000ft
1031 No Significant change LOWI 170550Z VRB02KT 9999 -SHSN FEW040 SCT050 BKN070 M00/M02 Q1031 NOSIG
VFR 0°C / -2°C 20º 2kt >10km - Few Clouds 4000ft
Scattered Clouds 6000ft
Broken Clouds 7500ft
1030 No Significant change LOWI 170520Z 02002KT 9999 FEW040 SCT060 BKN075 M00/M02 Q1030 NOSIG

VFR

4°C / -1°C

[Plus]
Vent 120º 4kt
Visibilité >10km
Météo -
Nuages Few Clouds 6000ft
Scattered Clouds 8500ft
Pression 1030
Changement No Significant change
Brut LOWI 171650Z 12004KT 9999 FEW060 SCT085 04/M01 Q1030 NOSIG

VFR

5°C / -1°C

[Plus]
Vent 90º 5kt
Visibilité >10km
Météo -
Nuages Few Clouds 6000ft
Scattered Clouds 9000ft
Pression 1030
Changement No Significant change
Brut LOWI 171620Z 09005KT 9999 FEW060 SCT090 05/M01 Q1030 NOSIG

VFR

6°C / -1°C

[Plus]
Vent 100º variable 060º to 130º 5kt
Visibilité >10km
Météo -
Nuages Few Clouds 6000ft
Scattered Clouds 9000ft
Pression 1029
Changement No Significant change
Brut LOWI 171550Z 10005KT 060V130 9999 FEW060 SCT090 06/M01 Q1029 NOSIG

VFR

7°C / -2°C

[Plus]
Vent 90º variable 060º to 150º 6kt
Visibilité >10km
Météo -
Nuages Few Clouds 6000ft
Scattered Clouds 10000ft
Pression 1029
Changement No Significant change
Brut LOWI 171520Z 09006KT 060V150 9999 FEW060 SCT100 07/M02 Q1029 NOSIG

VFR

7°C / -2°C

[Plus]
Vent 170º variable 140º to 210º 3kt
Visibilité >10km
Météo -
Nuages Few Clouds 6000ft
Broken Clouds 10000ft
Pression 1029
Changement No Significant change
Brut LOWI 171450Z 17003KT 140V210 9999 FEW060 BKN100 07/M02 Q1029 NOSIG

VFR

8°C / -2°C

[Plus]
Vent variable 2kt
Visibilité >10km
Météo -
Nuages Few Clouds 6000ft
Broken Clouds 10000ft
Pression 1029
Changement No Significant change
Brut LOWI 171420Z VRB02KT 9999 FEW060 BKN100 08/M02 Q1029 NOSIG

VFR

8°C / -2°C

[Plus]
Vent variable 2kt
Visibilité >10km
Météo -
Nuages Few Clouds 6000ft
Scattered Clouds 10000ft
Pression 1029
Changement No Significant change
Brut LOWI 171350Z VRB02KT 9999 FEW060 SCT100 08/M02 Q1029 NOSIG

VFR

7°C / -2°C

[Plus]
Vent 200º variable 160º to 230º 3kt
Visibilité >10km
Météo -
Nuages Few Clouds 6000ft
Scattered Clouds 10000ft
Pression 1029
Changement Temporary: Wind 270º 15kt.
Brut LOWI 171320Z 20003KT 160V230 9999 FEW060 SCT100 07/M02 Q1029 TEMPO 27015KT

VFR

9°C / -2°C

[Plus]
Vent 140º variable 090º to 210º 3kt
Visibilité >10km
Météo -
Nuages Few Clouds 4000ft
Scattered Clouds 5000ft
Broken Clouds 7000ft
Pression 1029
Changement Temporary: Wind 270º 15kt.
Brut LOWI 171250Z 14003KT 090V210 9999 FEW040 SCT050 BKN070 09/M02 Q1029 TEMPO 27015KT

VFR

8°C / -1°C

[Plus]
Vent 180º variable 140º to 230º 4kt
Visibilité >10km
Météo -
Nuages Few Clouds 4000ft
Scattered Clouds 5000ft
Broken Clouds 7000ft
Pression 1029
Changement Temporary: Wind 270º 15kt.
Brut LOWI 171220Z 18004KT 140V230 9999 FEW040 SCT050 BKN070 08/M01 Q1029 TEMPO 27015KT

VFR

7°C / -1°C

[Plus]
Vent 100º variable 070º to 160º 3kt
Visibilité >10km
Météo -
Nuages Few Clouds 4000ft
Scattered Clouds 5000ft
Broken Clouds 7000ft
Pression 1030
Changement Temporary: from 1230 Wind 270º 15kt.
Brut LOWI 171150Z 10003KT 070V160 9999 FEW040 SCT050 BKN070 07/M01 Q1030 TEMPO FM1230 27015KT

VFR

6°C / -1°C

[Plus]
Vent 140º variable 070º to 220º 3kt
Visibilité >10km
Météo -
Nuages Few Clouds 4000ft
Scattered Clouds 5000ft
Broken Clouds 7000ft
Pression 1031
Changement Temporary: from 1230 Wind 270º 15kt.
Brut LOWI 171120Z 14003KT 070V220 9999 FEW040 SCT050 BKN070 06/M01 Q1031 TEMPO FM1230 27015KT

VFR

6°C / 0°C

[Plus]
Vent variable 2kt
Visibilité >10km
Météo -
Nuages Few Clouds 4000ft
Scattered Clouds 5000ft
Broken Clouds 7000ft
Pression 1031
Changement Temporary: from 1200 Wind 270º 20kt.
Brut LOWI 171050Z VRB02KT 9999 FEW040 SCT050 BKN070 06/M00 Q1031 TEMPO FM1200 27020KT

VFR

4°C / 0°C

[Plus]
Vent variable 1kt
Visibilité >10km
Météo -
Nuages Few Clouds 4000ft
Scattered Clouds 5000ft
Broken Clouds 7000ft
Pression 1032
Changement Temporary: from 1200 Wind 270º 20kt.
Brut LOWI 171020Z VRB01KT 9999 FEW040 SCT050 BKN070 04/M00 Q1032 TEMPO FM1200 27020KT

VFR

3°C / -1°C

[Plus]
Vent variable 1kt
Visibilité >10km
Météo -
Nuages Few Clouds 4000ft
Scattered Clouds 5000ft
Broken Clouds 7000ft
Pression 1032
Changement No Significant change
Brut LOWI 170950Z VRB01KT 9999 FEW040 SCT050 BKN070 03/M01 Q1032 NOSIG

VFR

1°C / -1°C

[Plus]
Vent variable 2kt
Visibilité >10km
Météo -
Nuages Few Clouds 4000ft
Scattered Clouds 5000ft
Broken Clouds 7000ft
Pression 1032
Changement No Significant change
Brut LOWI 170920Z VRB02KT 9999 FEW040 SCT050 BKN070 01/M01 Q1032 NOSIG

VFR

1°C / -1°C

[Plus]
Vent variable 2kt
Visibilité >10km
Météo -
Nuages Few Clouds 4000ft
Scattered Clouds 5000ft
Broken Clouds 7000ft
Pression 1031
Changement No Significant change
Brut LOWI 170850Z VRB02KT 9999 FEW040 SCT050 BKN070 01/M01 Q1031 NOSIG

VFR

0°C / -2°C

[Plus]
Vent 260º 3kt
Visibilité >10km
Météo -
Nuages Few Clouds 4000ft
Scattered Clouds 5000ft
Broken Clouds 7000ft
Pression 1031
Changement No Significant change
Brut LOWI 170820Z 26003KT 9999 FEW040 SCT050 BKN070 00/M02 Q1031 NOSIG

VFR

0°C / -2°C

[Plus]
Vent 250º variable 200º to 280º 3kt
Visibilité >10km
Météo -
Nuages Few Clouds 4000ft
Scattered Clouds 5000ft
Broken Clouds 7000ft
Pression 1031
Changement No Significant change
Brut LOWI 170750Z 25003KT 200V280 9999 FEW040 SCT050 BKN070 00/M02 Q1031 NOSIG

VFR

0°C / -2°C

[Plus]
Vent variable 2kt
Visibilité >10km
Météo -
Nuages Few Clouds 4000ft
Scattered Clouds 5000ft
Broken Clouds 7000ft
Pression 1031
Changement No Significant change
Brut LOWI 170720Z VRB02KT 9999 FEW040 SCT050 BKN070 00/M02 Q1031 NOSIG

VFR

0°C / -2°C

[Plus]
Vent variable 2kt
Visibilité >10km
Météo -
Nuages Few Clouds 4000ft
Scattered Clouds 5000ft
Broken Clouds 7000ft
Pression 1031
Changement No Significant change
Brut LOWI 170650Z VRB02KT 9999 FEW040 SCT050 BKN070 00/M02 Q1031 NOSIG

VFR

0°C / -2°C

[Plus]
Vent variable 3kt
Visibilité >10km
Météo -
Nuages Few Clouds 4000ft
Scattered Clouds 5000ft
Broken Clouds 7000ft
Pression 1030
Changement No Significant change
Brut LOWI 170620Z VRB03KT 9999 FEW040 SCT050 BKN070 00/M02 Q1030 NOSIG

VFR

0°C / -2°C

[Plus]
Vent variable 2kt
Visibilité >10km
Météo Light Showers Snow 3.00mm precipitation
Nuages Vertical Visibility of 0ft.
Scattered Clouds 5000ft
Broken Clouds 7000ft
Pression 1031
Changement No Significant change
Brut LOWI 170550Z VRB02KT 9999 -SHSN FEW040 SCT050 BKN070 M00/M02 Q1031 NOSIG

VFR

0°C / -2°C

[Plus]
Vent 20º 2kt
Visibilité >10km
Météo -
Nuages Few Clouds 4000ft
Scattered Clouds 6000ft
Broken Clouds 7500ft
Pression 1030
Changement No Significant change
Brut LOWI 170520Z 02002KT 9999 FEW040 SCT060 BKN075 M00/M02 Q1030 NOSIG

TAF pour Innsbruck (LOWI)

From till


Maximum Temperature 5ºC on . Minimum Temperature 1ºC on .
From till Wind 90º 7kt. Visibility 10km or more. Scattered Clouds 5000ft. Broken Clouds 8000ft.
Temporarly from till Wind 270º 15kt. Gust 25kt.
Temporarly from till Visibility 4000m. Light Showers Snow . Broken Clouds 1300ft.
Temporarly from till Visibility 2500m. Light Snow Light Rain Light Snow . Broken Clouds 800ft.

Brut: TAF LOWI 171115Z 1712/1812 09007KT 9999 SCT050 BKN080 TX05/1715Z TN01/1806Z TEMPO 1712/1718 27015G25KT TEMPO 1718/1724 4000 -SHSN BKN013 TEMPO 1800/1807 2500 -SN -RASN BKN008

Radar pour Innsbruck

Bruine
Légère
Modéré
Fort
Très fort
Grêle

Le marqueur est placé sur Innsbruck. Cette animation montre le Radar des précipitations pour les dernières heures, ainsi qu'une 2h prévision. La bruine ou les légères chutes de neiges peuvent ne pas être détectées par le radar. L'intensité des précipitations est visible avec un code couleur allant du bleu clair au violet foncé et orange.
Copyright 2022 Deutscher Wetterdienst / meteoblue.

Les images satellites et les pluies actuelles pour Innsbruck, Autriche

Le marqueur est placé sur Innsbruck. [Plus]

L'image satellite en temps réel combine la lumière visible pendant la journée et le rayonnement infrarouge pendant la nuit. La nuit, l'image n'est pas sombre car le rayonnement infrarouge permet de détecter les différences de température. Malheureusement, les nuages bas et le brouillard sont difficiles à distinguer des températures au sol et peuvent donc être presque invisibles pendant la nuit. Les images des satellites Météosat pour l'Europe sont mises à jour en temps réel toutes les 5 minutes. Les images GOES-16/GOES-17 (Amérique du Nord et du Sud) et Himawari (Asie) sont mises à jour toutes les 10 minutes.

La précipitation est estimée à partir des radars et des satellites. Les calculs des précipitations pour la nuit par le satellite sont moins précises que pour le jour. Les croix oranges marquent les lieux où la foudre a été détectée (sur Europe).

Copyright 2022 EUMETSAT / meteoblue. Données de foudre fournies par nowcast.